COSMOS 1375 DEB

Satellite information

Favourite Embed

Satellite Type and Status

DEBRISIN ORBIT

Key statistics

Satellite COSMOS 1375 DEB at a glance.

Uptime

15797

Days in orbit

Revolutions

≈ 14.0

Per day

Orbit

LEO

Low Earth Orbit

Inclination

65.8

Latest

Satellite identification and parameters

Extended collection of information and parameters for COSMOS 1375 DEB.

Object identification

Identified? True

Debris? True

Object name: COSMOS 1375 DEB

International designator: 1982-055D

Object number (NORAD): 16202

Object ID (CCSDS): 16202

Country: COMMONWEALTH OF INDEPENDENT STATES (CIS)

Current information (Y/N): Y

RCS size: SMALL

Orbital parameters

Period: 102.963 minutes

Inclination: 65.83 deg

SMA: 7276.899 km

Apoapsis: 953.966 km

Periapsis: 843.562 km

RAAN: 318.733 deg

Eccentricy: 0.00758589

Argument of periapsis: 142.5504 deg

Mean anomaly: 250.06 deg

Mean motion: 13.98566825 rev/day

Mean motion (dot): 0.00000501 rev/day2

B* drag term: 0.00039889351 1/REarth

Two-line elements (TLE)

Creation date: Sept. 4, 2025, 10:13 a.m.

Reference frame: TEME

Reference center: EARTH

Epoch: Sept. 4, 2025, 4:58 a.m. UTC

TLE line 0: 0 COSMOS 1375 DEB

TLE line 1: 1 16202U 82055D 25247.20739094 .00000501 00000-0 39889-3 0 9991

TLE line 2: 2 16202 65.8300 318.7330 0075859 142.5504 250.0600 13.98566825197840

Live tracking on map

Real-time ground track for satellite COSMOS 1375 DEB.

In-orbit conjunctions

A list of the most updated potential collisions computed for object COSMOS 1375 DEB.

Target Orbit TCA Probability of collision Miss distance Type
FENGYUN 1C DEB SSO 2025-04-09 08:08:03 0.0001842401 223.0 (m) DEBRIS
SL-16 DEB LEO 2025-01-31 02:20:09 0.0001042621 205.0 (m) DEBRIS
SL-16 DEB LEO 2024-08-08 01:31:23 0.0002669942 28.0 (m) DEBRIS

Associated space launch

ASAT target satellite

COSMOS 1375 DEB was lifted into orbit during the mission ‘Kosmos-3M | DS-P1-M 16’, on board a Kosmos-3M space rocket.

The launch took place on June 6, 1982, 5:10 p.m. from 132/2.

For more information about the launch, click the button.

Launch to space Kosmos-3M | DS-P1-M 16
Kosmos-3M | DS-P1-M 16

Agency: N/A

Status: Launch Successful

Launch date: June 6, 1982, 5:10 p.m. UTC

Rocket: Kosmos-3M

Launch pad: 132/2

Location: Plesetsk Cosmodrome, Russian Federation

...

Latest news about this satellite

There are no fresh news available about this satellite. Check back as we update our databases every day.


Newsletter sign-up

Weekly statistics, charts and insights to help you stay on top of the space industry.